RH
89 86 71 72 77 86 91 95 93 94 93 84 96 99 98 96 89 83 91 96 93 100 100 99 92 82 74 75 79 78 73 69 64 56 55 54 65 75 73 69 69 65 51
93 92 95 87 86 88 93 96 89 98 96 100 100 100 100 98 87 93 100 98 97 100 99 98 90 77 79 82 77 82 80 75 69 62 58 57 58 63 71 73 70 57 53
92 76 70 72 72 71 78 79 91 96 98 100 100 100 100 94 90 95 98 99 100 99 98 98 88 84 80 82 81 87 80 72 68 68 62 60 60 61 65 66 63 54 56
72 75 78 81 88 95 99 99 98 99 98 100 100 100 100 92 98 99 95 100 100 99 99 99 91 91 83 81 78 85 89 80 72 69 62 60 60 59 63 61 54 44 50
81 87 91 100 98 99 99 96 92 98 100 100 100 99 95 99 98 99 100 100 100 100 98 100 91 85 67 76 73 70 83 85 80 66 62 61 59 59 54 55 57 52 54
82 86 91 96 95 89 85 85 85 82 77 77 87 92 88 91 100 100 100 100 99 100 93 85 82 80 74 61 71 79 79 88 80 75 80 81 66 62 60 65 55 57 59
71 81 90 90 88 86 84 83 80 78 80 86 86 98 99 100 100 100 96 83 96 89 86 81 75 68 77 77 86 76 77 88 93 96 97 88 74 67 67 68 58 63 65
73 82 88 89 88 85 83 82 82 83 89 98 99 99 96 94 80 68 64 62 76 83 82 80 76 72 76 86 89 90 86 87 98 98 95 87 76 76 77 74 72 81 78
77 83 83 85 84 87 83 85 93 98 99 100 100 100 99 94 72 61 63 66 89 85 81 78 77 78 77 80 73 93 88 90 97 97 92 87 76 73 78 82 85 79 80
88 89 95 97 98 98 97 99 99 99 99 92 84 87 73 48 45 44 54 62 74 80 82 81 80 82 62 70 75 75 98 89 92 98 96 78 75 72 72 65 90 84 79
93 95 91 90 95 98 98 95 86 81 63 48 36 38 39 46 50 48 54 65 75 91 93 87 84 88 84 63 72 77 78 94 100 98 97 89 87 86 81 89 94 85 82
84 90 98 98 93 77 63 52 45 58 50 67 72 73 91 96 97 93 73 72 82 95 98 98 98 99 99 90 80 78 87 92 99 99 97 98 96 92 82 80 80 81 82
89 81 65 48 37 34 46 49 74 83 89 92 86 87 80 84 83 83 86 52 40 41 53 91 87 91 96 98 96 94 97 97 99 100 98 98 98 99 98 96 94 90 92
50 40 40 33 44 35 48 43 53 39 23 28 58 69 75 69 87 88 33 35 24 20 58 80 77 96 92 87 97 98 98 96 97 99 98 99 98 97 99 99 98 94 97
38 33 35 37 29 28 23 9 8 9 7 8 14 14 23 42 63 36 48 50 49 45 50 35 80 81 77 85 96 97 97 96 93 97 98 96 96 100 96 100 100 97 96
35 30 18 11 9 10 21 49 16 10 10 10 12 17 20 26 30 34 42 49 51 61 91 99 85 79 80 80 92 99 98 96 100 94 100 99 96 97 98 97 100 98 95
17 12 10 8 9 10 13 27 60 71 27 21 18 20 22 26 28 27 30 34 57 67 100 100 100 99 99 97 93 97 98 96 96 91 100 99 96 96 99 96 100 99 97
11 10 9 9 11 12 15 17 32 46 63 80 63 28 26 28 30 31 33 39 83 99 100 100 100 100 100 88 95 98 98 97 96 100 100 100 96 98 96 96 100 99 96
11 10 9 10 11 12 14 19 37 48 78 76 81 83 69 36 39 60 66 100 100 100 100 100 100 100 100 96 96 98 96 96 100 100 100 100 99 96 96 95 98 98 96
11 10 11 13 15 16 19 24 36 58 66 78 94 98 59 42 72 100 100 100 100 100 100 100 100 100 100 95 96 97 97 97 98 99 98 100 98 98 97 95 99 98 100
13 12 14 16 17 20 24 30 35 50 60 73 100 96 47 48 100 100 100 100 100 100 100 100 100 99 99 95 94 96 96 97 97 98 98 98 96 98 96 94 94 94 94
14 16 18 20 23 26 30 34 39 45 56 72 85 77 40 61 99 100 100 100 100 100 100 100 96 100 98 96 96 95 96 97 96 95 95 96 96 98 96 94 95 95 100
17 20 23 25 29 31 35 39 45 51 57 57 55 53 50 68 68 99 100 100 100 72 79 70 71 80 94 96 97 97 96 95 95 96 98 95 96 97 96 96 100 100 100
22 25 29 32 34 40 42 47 53 61 51 45 43 54 75 73 88 96 100 92 66 61 60 55 54 59 79 94 96 96 96 95 97 97 96 96 95 98 99 96 96 100 100
30 34 37 41 43 45 49 56 58 56 48 45 52 57 75 77 96 100 96 80 66 64 59 57 53 55 57 80 96 96 96 96 97 97 97 96 96 95 98 97 96 99 97
40 44 48 50 53 55 60 63 60 51 48 47 48 56 66 76 79 83 76 74 74 67 62 62 60 60 59 60 88 96 96 96 96 97 98 97 96 96 97 97 98 98 96
Wind_Speed
18 17 17 17 18 19 23 24 27 28 30 25 29 34 35 34 34 26 24 21 15 19 19 14 16 16 16 16 15 16 18 18 23 22 20 21 21 21 21 21 22 23 23
14 14 13 13 16 17 19 21 22 25 25 28 31 32 37 36 32 26 22 21 23 28 14 16 18 17 19 19 19 19 19 20 22 25 24 23 22 22 22 22 21 21 22
11 13 15 17 18 19 20 22 21 20 21 22 27 29 32 29 27 25 25 20 25 19 18 18 20 20 21 23 22 22 21 22 22 24 26 23 23 22 23 22 21 21 20
11 14 16 17 16 17 17 15 15 15 16 18 22 22 22 26 25 18 18 27 27 21 22 22 23 24 25 25 24 26 23 23 23 24 25 24 23 22 21 22 22 20 21
10 11 10 9 8 9 8 8 9 12 14 15 14 15 19 21 19 23 27 29 24 25 20 22 23 26 28 28 27 26 24 23 23 25 25 24 24 23 21 21 23 21 20
3 3 2 2 1 2 3 4 5 7 7 8 12 12 15 19 23 27 26 22 20 19 21 22 23 27 29 30 31 32 32 29 27 27 27 24 25 23 21 21 21 20 22
3 2 3 2 2 2 3 4 6 7 8 7 9 13 17 22 22 20 16 17 19 20 22 22 23 22 26 27 27 29 33 35 35 31 28 25 25 22 22 21 20 20 22
8 8 7 5 4 4 3 4 4 3 5 10 12 16 15 14 12 12 16 21 21 21 22 23 24 24 23 25 24 26 27 27 28 28 29 25 23 21 20 19 19 20 20
10 11 10 9 7 7 4 2 3 6 9 12 7 7 8 10 16 16 20 23 21 24 24 25 26 25 24 28 28 29 29 30 30 29 32 27 28 28 27 22 19 18 21
13 13 12 11 9 7 2 4 8 9 4 4 6 8 13 16 18 19 20 24 26 28 28 28 29 30 29 30 31 32 32 31 26 27 24 25 26 26 25 24 18 19 19
14 12 10 7 3 2 4 4 2 3 7 10 13 14 16 18 19 22 22 25 27 28 29 29 28 29 33 30 31 34 36 30 27 30 25 21 18 18 18 18 17 18 19
9 7 5 4 3 1 0 3 6 7 10 11 13 15 13 15 18 21 25 25 27 31 34 33 33 33 35 36 32 34 34 31 29 30 28 23 21 19 18 18 19 20 19
7 7 6 4 2 1 2 5 5 6 8 10 11 13 14 17 17 20 23 28 30 33 35 35 39 40 39 35 39 36 32 32 31 33 30 29 24 20 17 17 18 20 20
10 8 5 3 0 3 4 5 6 9 12 13 13 13 15 17 16 20 28 31 34 36 34 33 36 36 38 39 32 32 33 32 32 32 33 29 23 20 18 18 18 17 17
7 5 2 1 2 3 5 8 9 12 13 14 15 17 19 19 19 24 26 29 32 35 37 38 33 33 34 32 32 29 33 31 29 28 27 30 27 21 21 17 18 16 17
5 3 1 3 5 5 5 5 13 11 12 14 16 17 18 21 23 25 26 28 30 31 26 24 28 31 30 30 30 30 31 28 24 23 24 26 29 25 21 17 17 17 16
2 1 3 4 5 6 7 7 6 10 17 18 18 19 20 22 24 26 28 28 27 27 21 21 23 25 27 25 27 27 28 27 25 22 24 24 26 26 23 18 17 17 15
1 3 4 5 6 7 8 9 9 10 11 11 15 20 21 22 24 24 25 25 23 21 21 23 23 24 26 28 27 28 27 21 20 21 21 22 24 25 23 20 19 18 15
2 4 6 7 8 9 10 10 10 11 11 13 14 14 20 23 24 22 21 18 20 21 21 22 23 24 25 25 22 23 18 17 16 17 20 19 20 25 22 19 18 17 16
4 6 7 8 9 10 11 11 11 12 13 13 14 15 20 25 21 18 18 17 18 19 21 22 23 24 24 24 17 9 15 15 15 16 19 18 21 24 20 18 19 18 16
4 7 8 8 9 11 12 12 13 13 14 14 13 16 22 23 17 17 18 17 18 19 21 22 23 24 24 22 22 10 4 12 13 15 17 18 21 22 20 18 20 19 16
6 7 8 9 10 11 13 13 14 14 14 15 16 17 22 19 17 17 18 18 19 20 20 21 23 22 22 23 19 18 11 5 9 12 15 17 19 20 19 18 20 19 16
8 8 9 10 11 12 13 14 14 15 15 17 18 19 19 19 20 18 20 20 21 23 22 23 24 23 21 20 19 15 15 10 10 11 9 13 18 19 19 19 20 20 18
9 9 10 11 12 12 13 14 14 16 17 17 18 18 19 20 20 20 21 22 24 24 24 25 25 23 23 20 18 17 14 17 11 9 12 11 13 18 18 20 19 19 17
10 10 11 11 12 13 14 14 15 15 16 18 18 18 19 20 20 21 22 24 26 26 27 26 25 24 23 21 18 17 15 14 12 10 10 12 11 14 19 20 20 19 19
11 12 12 13 13 14 14 15 15 16 17 18 19 19 20 21 21 23 25 26 26 29 27 26 25 24 23 22 18 17 16 14 12 10 10 10 10 12 15 19 21 21 21
Wind_Direction
228 236 250 255 261 261 262 262 258 259 262 264 253 244 245 246 233 231 237 245 224 269 277 245 256 259 259 262 266 270 275 276 280 287 287 288 282 280 282 287 290 294 297
216 229 238 251 257 260 265 269 267 265 262 256 253 245 243 240 229 231 242 222 250 282 257 254 258 264 261 260 264 263 270 272 277 284 286 285 282 281 283 287 291 292 294
214 229 242 255 261 259 260 263 267 273 274 263 254 246 241 227 226 241 253 261 271 260 251 255 257 263 261 260 263 260 271 274 274 278 284 285 284 284 286 287 290 292 296
239 249 258 259 263 264 270 270 265 256 248 249 248 248 233 224 237 253 266 280 268 265 263 262 261 264 263 259 264 262 266 269 273 276 280 284 284 285 282 288 292 291 295
244 253 257 262 270 273 263 253 251 247 248 250 249 238 227 239 268 273 275 283 277 273 270 268 269 268 269 259 262 262 263 266 270 275 276 281 282 283 281 285 285 293 294
194 225 253 274 259 236 240 242 242 236 240 225 228 231 259 272 273 276 277 273 271 270 271 275 275 276 272 267 265 261 259 264 268 270 268 272 278 279 279 283 284 289 294
128 126 129 132 155 161 179 196 222 222 238 240 263 270 271 276 277 279 273 271 273 273 276 277 277 276 274 273 270 265 267 270 271 264 260 268 275 274 276 278 279 282 286
103 100 99 103 110 138 178 201 196 208 245 274 278 284 283 284 278 271 278 280 278 274 275 278 279 278 271 266 267 260 266 267 266 269 258 263 266 268 268 272 273 280 288
109 111 111 112 115 126 119 143 268 283 294 300 292 283 280 281 284 282 289 287 281 278 279 278 277 274 271 268 270 264 266 266 269 256 259 257 264 270 270 267 264 274 281
115 113 113 118 121 129 163 283 294 303 299 291 293 295 292 293 291 293 294 292 288 286 285 281 277 274 273 272 273 274 262 265 265 257 257 258 262 266 267 260 256 264 275
117 121 128 140 150 246 288 295 313 308 304 305 306 302 300 298 296 292 291 290 292 292 287 284 278 274 276 279 274 271 266 270 264 268 246 249 252 256 254 262 256 258 267
130 135 151 176 213 195 337 323 322 316 310 309 305 307 307 304 301 302 297 292 285 285 284 282 278 276 275 276 278 270 264 268 269 267 246 242 243 244 247 252 254 256 260
153 149 146 145 142 299 328 318 328 323 315 312 314 311 311 308 312 307 298 294 293 288 285 284 283 282 278 280 274 262 261 261 262 264 251 246 240 241 241 245 247 253 259
147 146 144 159 168 308 320 318 319 311 313 315 315 316 315 318 321 310 315 317 313 307 298 291 279 279 286 281 278 271 259 254 257 262 259 252 240 231 234 240 245 251 258
148 151 159 261 318 329 317 310 314 312 319 321 315 319 319 320 315 319 319 322 324 317 307 295 290 289 280 280 276 276 259 257 256 255 255 252 241 230 239 240 241 242 252
160 177 244 307 317 323 325 335 320 323 325 326 325 325 324 323 325 324 321 322 329 330 316 301 296 295 290 279 274 263 261 252 247 252 250 251 240 234 238 235 239 238 248
177 250 316 323 328 329 332 331 328 324 331 332 332 329 326 325 326 326 327 328 330 337 332 313 305 308 301 287 277 262 256 253 255 255 246 247 244 238 234 231 231 235 242
249 322 329 332 333 334 332 331 328 325 326 323 321 326 324 326 327 328 329 332 333 337 339 334 324 319 311 301 290 257 251 250 249 248 245 246 239 236 229 232 227 230 234
344 333 333 331 333 333 333 331 327 328 325 325 327 326 318 330 332 333 335 337 335 332 330 331 331 327 323 321 302 253 249 256 257 254 252 244 237 229 228 227 226 223 228
338 338 338 333 332 331 329 329 327 328 328 326 326 322 326 332 335 335 336 331 331 329 327 326 328 329 329 325 331 310 259 257 261 256 248 248 238 226 227 223 217 218 227
333 330 327 325 324 324 326 326 326 325 325 324 321 320 329 330 329 328 328 327 325 326 325 324 324 326 328 327 322 318 331 276 261 257 254 251 231 225 231 219 214 217 220
328 321 319 320 321 321 322 322 323 322 322 322 322 321 325 328 325 323 323 322 322 324 323 320 322 321 323 323 323 317 298 346 292 281 272 251 231 228 229 211 214 218 217
322 318 317 316 316 318 320 319 318 319 319 320 321 322 324 323 323 321 320 322 321 321 322 320 320 319 316 315 313 312 306 277 252 247 265 262 235 229 227 212 212 216 220
316 314 312 312 314 315 315 316 316 317 318 318 319 320 320 321 320 320 320 321 322 322 321 320 318 316 314 311 305 300 293 289 287 266 244 240 245 230 226 219 217 218 218
314 313 312 313 313 314 313 313 313 313 315 317 317 318 319 319 319 320 320 321 323 323 323 319 316 314 311 308 301 292 284 285 283 276 264 235 235 233 224 226 223 221 218
313 311 311 311 310 309 308 309 310 312 313 316 318 318 319 320 320 321 322 323 323 322 321 321 317 314 309 305 299 287 277 269 272 269 268 254 229 236 227 224 226 222 224